Flag for Germany Weather past 2 weeks in Stade, Lower Saxony, Germany

Now
66 °F

Clear.


Feels Like: 66 °F
Forecast: 57 / 62 °F
Wind: 7 mph from Northeast

Location: Hamburg-Finkenwerder

Current Time: Sep 20, 2014 at 11:02:01 AM

Latest Report: Sep 20, 2014 at 10:20 AM


Visibility: 6 mi

Pressure: 29.92 "Hg

Humidity: 83%

Dew point: 61 °F

Location of StadeLocation

Historic Weather in Stade — Graph

°F

Stade temperature yesterday

Maximum temperature yesterday: 75 °F (at 4:20 PM)
Minimum temperature yesterday: 55 °F (at 7:20 AM)
Average temperature yesterday: 67 °F

Past Weeks' High & Low Weather Summary

 TemperatureHumidityPressure
High79 °F (Sep 5, 3:50 PM)100% (Sep 8, 5:50 AM)30.24 "Hg (Sep 8, 5:50 AM)
Low54 °F (Sep 8, 5:50 AM)50% (Sep 12, 2:50 PM)29.89 "Hg (Sep 6, 9:20 AM)
Average66 °F75%30.03 "Hg
* Reported Sep 5 9:20 AM — Sep 20 9:50 AM, Stade, Weather by CustomWeather, © 2014

Note: Actual official high and low records may vary slightly from our data, if they occured in-between our weather recording intervals... More about our weather records

Advertising

Stade weather history for previous 24 hours

 ConditionsComfort  
Time TempWeatherWind HumidityBarometerVisibility
9:50 AM
Sep 20
64 °FClear.5 mph88%29.92 "Hg5 mi
9:20 AM61 °FClear.2 mph94%29.92 "Hg5 mi
8:50 AM61 °FScattered clouds.2 mph94%29.92 "Hg6 mi
8:20 AM61 °FScattered clouds.5 mph94%29.92 "Hg6 mi
8:50 PM
Sep 19
68 °FPassing clouds.3 mph73%29.92 "HgN/A
8:20 PM68 °FScattered clouds.5 mph69%29.89 "HgN/A
7:50 PM68 °FScattered clouds.3 mph73%29.89 "HgN/A
7:20 PM70 °FPassing clouds.3 mph64%29.89 "HgN/A
6:50 PM72 °FScattered clouds.5 mph61%29.89 "HgN/A
6:20 PM73 °FScattered clouds.6 mph57%29.89 "HgN/A
5:50 PM73 °FScattered clouds.5 mph57%29.89 "HgN/A
5:20 PM75 °FScattered clouds.8 mph54%29.89 "HgN/A
4:50 PM75 °FScattered clouds.6 mph50%29.89 "HgN/A
4:20 PM75 °FScattered clouds.7 mph50%29.89 "HgN/A
3:50 PM73 °FScattered clouds.6 mph57%29.89 "HgN/A
3:20 PM73 °FScattered clouds.6 mph57%29.89 "HgN/A
2:50 PM73 °FScattered clouds.6 mph61%29.89 "HgN/A
2:20 PM72 °FPartly sunny.7 mph65%29.89 "HgN/A
1:50 PM73 °FScattered clouds.7 mph61%29.89 "HgN/A
1:20 PM72 °FPassing clouds.7 mph65%29.89 "HgN/A
12:50 PM72 °FPassing clouds.6 mph65%29.89 "HgN/A
12:20 PM72 °FPassing clouds.7 mph65%29.89 "HgN/A
11:50 AM70 °FSunny.8 mph69%29.89 "Hg10 mi
11:20 AM68 °FSunny.7 mph73%29.92 "Hg10 mi
Weather by CustomWeather, © 2014

See weather overviewHow to use our weather pages